Location: Alincthun
(50.7310°N, 1.8022°E)
Time: 15:39:20
(UTC+00:00)

Cosmos 292 Rocket - Pass Details

Date: 17 February 2020
Orbit: 674 x 693 km, 74.1° (Epoch: 27 March)

Event Time Altitude Azimuth Distance (km) Brightness Sun altitude
Exits shadow 04:43:29 51° 210° (SSW) 846 3.9 -22.5°
Drops below altitude 10° 04:47:21 10° 172° (S) 2,104 6.3 -21.9°
Sets 04:49:39 0° 169° (S) 3,014 7.1 -21.6°
